sat.trackr.live / text

‹ back to catalog

IPM 2 & BREEZE-M R/B

NORAD 47242 · 2020-097A

PAYLOAD ACTIVE UNKNOWN

§ Identity

Operator
Country
CIS
Launch date
2020-12-14
Launch site
PLMSC
Launch vehicle
Mass (kg)
RCS (m²)

External: N2YO · Heavens-Above · Gunter

§ Orbital elements

Epoch: 2026-05-24T08:31:19.402752Z

Period
1,511.06 min
Inclination
5.2984°
Eccentricity
0.0083485
Mean motion
0.95297320 rev/d
Perigee alt
36,877.3 km
Apogee alt
37,605.6 km
Semi-major
43,619.6 km
B*
0.0000e+0
RAAN
77.0042°
Arg perigee
278.7539°
Mean anomaly
80.1219°
Rev number
1,904

§ Raw data

IPM 2 & BREEZE-M R/B1 47242U 20097A   26144.35508568 -.00000064  00000+0  00000+0 0  99932 47242   5.2984  77.0042 0083485 278.7539  80.1219  0.95297320 19040

JSON: /api/v1/satellites/47242 · /tle

For live sub-satellite position, see the globe view (requires WebGL).

§ Visibility from observer

Set your observer location to see the next 7 days of passes ≥ 10°. The values pass through the URL so the page stays shareable.

No JS? Fill the form by hand. The geolocation button needs JavaScript.